When you browse on this site, cookies collect data to enhance your experience and personalize the content and advertising you see.
Visit our Privacy Policy to learn more. By continuing to use the site, you agree to this use of cookies and data.
  • In Portugal
  • List of Countries
  • For 7 days
  • Water Temperature
  • Satellite Maps
  • Weather Map
  • Weather Widgets
  • user-avatar
    Login

    Hourly Weather Ahwaz

    Today, 22 January, Tuesday

    Time Temperature Precipitation Wind Pressure Humidity
    00:00 +11°C° 0 mm 3 mps 764 mmHg 36%
    01:00 +10°C° 0 mm 3 mps 764 mmHg 37%
    02:00 +10°C° 0 mm 2 mps 763 mmHg 37%
    03:00 +10°C° 0 mm 3 mps 763 mmHg 39%
    04:00 +9°C° 0 mm 3 mps 763 mmHg 39%
    05:00 +9°C° 0 mm 3 mps 763 mmHg 40%
    06:00 +9°C° 0 mm 3 mps 763 mmHg 40%
    07:00 +10°C° 0 mm 3 mps 763 mmHg 38%
    08:00 +11°C° 0 mm 3 mps 763 mmHg 36%
    09:00 +12°C° 0 mm 3 mps 764 mmHg 33%
    10:00 +13°C° 0 mm 3 mps 763 mmHg 30%
    11:00 +14°C° 0 mm 3 mps 763 mmHg 26%
    12:00 +17°C° 0 mm 3 mps 763 mmHg 22%
    13:00 +17°C° 0 mm 3 mps 763 mmHg 21%
    14:00 +18°C° 0 mm 2 mps 762 mmHg 19%
    15:00 +18°C° 0 mm 2 mps 762 mmHg 18%
    16:00 +17°C° 0 mm 2 mps 762 mmHg 21%
    17:00 +17°C° 0 mm 2 mps 762 mmHg 23%
    18:00 +16°C° 0 mm 2 mps 762 mmHg 25%
    19:00 +15°C° 0 mm 2 mps 762 mmHg 26%
    20:00 +15°C° 0 mm 2 mps 762 mmHg 27%
    21:00 +13°C° 0 mm 3 mps 762 mmHg 28%
    22:00 +13°C° 0 mm 3 mps 762 mmHg 28%
    23:00 +13°C° 0 mm 3 mps 762 mmHg 29%

    Tomorrow, 23 January, Wednesday

    Time Temperature Precipitation Wind Pressure Humidity
    00:00 +12°C° 0 mm 3 mps 762 mmHg 30%
    01:00 +13°C° 0 mm 2 mps 762 mmHg 31%
    02:00 +13°C° 0 mm 2 mps 762 mmHg 31%
    03:00 +12°C° 0 mm 2 mps 762 mmHg 32%
    04:00 +12°C° 0 mm 2 mps 762 mmHg 32%
    05:00 +12°C° 0 mm 1 mps 762 mmHg 31%
    06:00 +12°C° 0 mm 1 mps 762 mmHg 31%
    07:00 +13°C° 0 mm 1 mps 762 mmHg 29%
    08:00 +14°C° 0 mm 2 mps 762 mmHg 27%
    09:00 +15°C° 0 mm 2 mps 763 mmHg 25%
    10:00 +17°C° 0 mm 2 mps 763 mmHg 22%
    11:00 +18°C° 0 mm 2 mps 762 mmHg 20%
    12:00 +19°C° 0 mm 2 mps 762 mmHg 18%
    13:00 +20°C° 0 mm 2 mps 762 mmHg 17%
    14:00 +21°C° 0 mm 1 mps 762 mmHg 17%
    15:00 +22°C° 0 mm 1 mps 761 mmHg 16%
    16:00 +21°C° 0 mm 1 mps 762 mmHg 19%
    17:00 +20°C° 0 mm 1 mps 762 mmHg 22%
    18:00 +19°C° 0 mm 1 mps 762 mmHg 26%
    19:00 +18°C° 0 mm 1 mps 762 mmHg 26%
    20:00 +18°C° 0 mm 1 mps 762 mmHg 27%
    21:00 +16°C° 0 mm 1 mps 763 mmHg 28%
    22:00 +16°C° 0 mm 1 mps 763 mmHg 28%
    23:00 +15°C° 0 mm 1 mps 763 mmHg 28%

    Day after tomorrow, 24 January, Thursday

    Time Temperature Precipitation Wind Pressure Humidity
    00:00 +15°C° 0 mm 1 mps 763 mmHg 28%
    01:00 +15°C° 0 mm 1 mps 763 mmHg 28%
    02:00 +14°C° 0 mm 1 mps 763 mmHg 28%
    03:00 +14°C° 0 mm 1 mps 763 mmHg 29%
    04:00 +14°C° 0 mm 1 mps 763 mmHg 29%
    05:00 +13°C° 0 mm 1 mps 763 mmHg 30%
    06:00 +13°C° 0 mm 1 mps 763 mmHg 30%
    07:00 +15°C° 0 mm 1 mps 764 mmHg 27%
    08:00 +16°C° 0 mm 1 mps 764 mmHg 24%
    09:00 +19°C° 0 mm 1 mps 764 mmHg 21%
    10:00 +20°C° 0 mm 1 mps 764 mmHg 20%
    11:00 +21°C° 0 mm 1 mps 764 mmHg 19%
    12:00 +22°C° 0 mm 1 mps 764 mmHg 18%
    13:00 +23°C° 0 mm 1 mps 763 mmHg 18%
    14:00 +23°C° 0 mm 1 mps 763 mmHg 18%
    15:00 +24°C° 0 mm 1 mps 763 mmHg 17%
    16:00 +22°C° 0 mm 1 mps 763 mmHg 21%
    17:00 +21°C° 0 mm 1 mps 763 mmHg 25%
    18:00 +20°C° 0 mm 1 mps 763 mmHg 28%
    19:00 +20°C° 0 mm 1 mps 763 mmHg 29%
    20:00 +19°C° 0 mm 1 mps 764 mmHg 29%
    21:00 +18°C° 0 mm 2 mps 764 mmHg 29%
    22:00 +18°C° 0 mm 2 mps 764 mmHg 29%
    23:00 +18°C° 0 mm 2 mps 764 mmHg 30%

    25 January, Friday

    Time Temperature Precipitation Wind Pressure Humidity
    00:00 +17°C° 0 mm 3 mps 764 mmHg 30%
    01:00 +17°C° 0 mm 2 mps 763 mmHg 31%
    02:00 +17°C° 0 mm 2 mps 763 mmHg 32%
    03:00 +16°C° 0 mm 2 mps 763 mmHg 33%
    04:00 +16°C° 0 mm 3 mps 763 mmHg 33%
    05:00 +16°C° 0 mm 3 mps 763 mmHg 33%
    06:00 +16°C° 0 mm 3 mps 763 mmHg 33%
    07:00 +17°C° 0 mm 3 mps 763 mmHg 31%
    08:00 +18°C° 0 mm 3 mps 763 mmHg 30%
    09:00 +19°C° 0 mm 3 mps 763 mmHg 28%
    10:00 +21°C° 0 mm 4 mps 763 mmHg 26%
    11:00 +23°C° 0 mm 5 mps 763 mmHg 24%
    12:00 +25°C° 0 mm 5 mps 762 mmHg 22%
    13:00 +26°C° 0 mm 6 mps 762 mmHg 23%
    14:00 +26°C° 0 mm 6 mps 762 mmHg 24%
    15:00 +27°C° 0 mm 6 mps 761 mmHg 25%
    16:00 +24°C° 0 mm 6 mps 761 mmHg 30%
    17:00 +23°C° 0 mm 5 mps 761 mmHg 35%
    18:00 +22°C° 0 mm 4 mps 762 mmHg 40%
    19:00 +21°C° 0 mm 4 mps 762 mmHg 45%
    20:00 +20°C° 0 mm 4 mps 762 mmHg 50%
    21:00 +19°C° 0 mm 3 mps 762 mmHg 55%
    22:00 +19°C° 0 mm 3 mps 762 mmHg 59%
    23:00 +18°C° 0 mm 3 mps 762 mmHg 62%

    26 January, Saturday

    Time Temperature Precipitation Wind Pressure Humidity
    00:00 +18°C° 0 mm 3 mps 762 mmHg 66%
    01:00 +18°C° 0 mm 3 mps 762 mmHg 67%
    02:00 +18°C° 0 mm 3 mps 762 mmHg 68%
    03:00 +17°C° 0 mm 3 mps 762 mmHg 68%
    04:00 +17°C° 0 mm 3 mps 762 mmHg 66%
    05:00 +17°C° 0 mm 3 mps 762 mmHg 63%
    06:00 +17°C° 0 mm 3 mps 762 mmHg 60%
    07:00 +18°C° 0 mm 3 mps 763 mmHg 54%
    08:00 +20°C° 0 mm 3 mps 763 mmHg 47%
    09:00 +21°C° 0 mm 3 mps 763 mmHg 40%
    10:00 +23°C° 0 mm 4 mps 763 mmHg 34%
    11:00 +25°C° 0 mm 5 mps 763 mmHg 29%
    12:00 +27°C° 0 mm 6 mps 763 mmHg 23%
    13:00 +27°C° 0 mm 6 mps 762 mmHg 24%
    14:00 +28°C° 0 mm 6 mps 762 mmHg 25%
    15:00 +28°C° 0 mm 7 mps 761 mmHg 25%
    16:00 +27°C° 0 mm 6 mps 761 mmHg 30%
    17:00 +24°C° 0 mm 6 mps 761 mmHg 35%
    18:00 +23°C° 0 mm 5 mps 761 mmHg 40%
    19:00 +23°C° 0 mm 5 mps 762 mmHg 44%
    20:00 +22°C° 0 mm 5 mps 762 mmHg 47%
    21:00 +22°C° 0 mm 5 mps 762 mmHg 50%
    22:00 +21°C° 0.1 mm 6 mps 762 mmHg 55%
    23:00 +21°C° 0.1 mm 6 mps 762 mmHg 60%

    27 January, Sunday

    Time Temperature Precipitation Wind Pressure Humidity
    00:00 +20°C° 0.1 mm 7 mps 762 mmHg 65%
    01:00 +20°C° 0.4 mm 6 mps 762 mmHg 66%
    02:00 +20°C° 0.4 mm 4 mps 762 mmHg 67%
    03:00 +20°C° 0.4 mm 3 mps 762 mmHg 69%
    04:00 +20°C° 0.2 mm 4 mps 762 mmHg 64%
    05:00 +20°C° 0.2 mm 6 mps 762 mmHg 59%
    06:00 +20°C° 0.2 mm 7 mps 762 mmHg 54%
    07:00 +21°C° 0.1 mm 8 mps 763 mmHg 50%
    08:00 +22°C° 0.1 mm 8 mps 763 mmHg 46%
    09:00 +22°C° 0.1 mm 9 mps 763 mmHg 42%
    10:00 +23°C° 0.3 mm 10 mps 763 mmHg 39%
    11:00 +24°C° 0.3 mm 10 mps 763 mmHg 36%
    12:00 +26°C° 0.3 mm 11 mps 762 mmHg 33%
    13:00 +27°C° 0.1 mm 11 mps 762 mmHg 33%
    14:00 +27°C° 0.1 mm 12 mps 761 mmHg 32%
    15:00 +27°C° 0.1 mm 12 mps 761 mmHg 32%
    16:00 +26°C° 0.1 mm 10 mps 761 mmHg 36%
    17:00 +24°C° 0.1 mm 8 mps 761 mmHg 39%
    18:00 +23°C° 0.1 mm 7 mps 762 mmHg 43%
    19:00 +23°C° 0 mm 6 mps 762 mmHg 46%
    20:00 +22°C° 0 mm 6 mps 762 mmHg 48%
    21:00 +22°C° 0 mm 6 mps 763 mmHg 51%
    22:00 +22°C° 0 mm 6 mps 762 mmHg 52%
    23:00 +21°C° 0 mm 5 mps 762 mmHg 53%
    Show more